El Dorado Springs, MO (64744)

7:52 PM CDT on March 25, 2017 (GMT -0500)
St. Clair County | | Change Station

Elev 965 ft 37.90 °N, 93.80 °W | Updated 6 seconds ago

Overcast
Overcast
48.9 °F
Feels Like 48 °F
N
3.1
Wind Variable Wind from WSW
Gusts 4.9 mph

Today
High -- | Low -- °F
--% Chance of Precip.
Yesterday
High -- | Low -- °F
Precip. -- in
Pressure 29.85 in
Visibility 5.0 miles
Clouds Overcast 800 ft
Windchill 48 °F
Dew Point 49 °F
Humidity 99%
Rainfall 0.30 in
Snow Depth Not available.
7:11 AM 7:32 PM
Waning Crescent, 6% visible
METAR KGLY 260035Z AUTO 22010KT 5SM -RA OVC008 10/09 A2985 RMK AO2
Pressure 29.85 in
Visibility 5.0 miles
Clouds Overcast 800 ft
Windchill 48 °F
Dew Point 49 °F
Humidity 99%
Rainfall 0.30 in
Snow Depth Not available.
7:11 AM 7:32 PM
Waning Crescent, 6% visible
METAR KGLY 260035Z AUTO 22010KT 5SM -RA OVC008 10/09 A2985 RMK AO2

Get Severe Weather Alerts

Thanks for signing up!

Be on the lookout for a verification email in your inbox.

You'll start receiving the daily forecast at 8 AM.

×

10-Day Weather Forecast

Almanac

Astronomy

Mar. 25, 2017 Rise Set
Actual Time
Civil Twilight
Nautical Twilight
Astronomical Twilight
Moon
Length of Visible Light
Length of Day
Tomorrow will be .
, % of the Moon is Illuminated

Today's Extremes

State Highs State Lows

Community

WunderPhotos

Upload Photos

1,962,540 photos uploaded!

WunderBlog® & News

Nearby

Air Quality

  Air Quality AQ Index Pollutant
Not available.

Snow Depth

Station Depth Elevation

Earthquake Activity

City Distance Mag. Time & Date
Minimum magnitude displayed is 2.5.

Earthquake Activity

City Distance Mag. Time & Date
Minimum magnitude displayed is 2.5.

Coastal Water Temperatures

Place Temperature

Stations

Nearby Weather Stations

Station Location Temp. Windchill Dew Point Humidity Wind Precip. Elev Updated Type
                   

Watches & Warnings

There are currently no watches in effect.